| time (UTC) | temp F | wind direction | speed MPH | gust MPH | rain 1hr in | rain 24hr in | rain mn in | humidity % | barometer mb |
| 20260505011005 | 69 | 37 | 0.0 | 0.0 | 0.00 | 0.00 | 0.00 | 64 | 972.1 |
| 20260505010504 | 70 | 36 | 0.0 | 0.0 | 0.00 | 0.00 | 0.00 | 63 | 972.0 |
| 20260505010009 | 70 | 30 | 0.0 | 0.0 | 0.00 | 0.00 | 0.00 | 63 | 971.9 |
| 20260505005504 | 70 | 36 | 0.0 | 0.0 | 0.00 | 0.00 | 0.00 | 63 | 971.8 |
| 20260505005004 | 70 | 36 | 0.0 | 0.0 | 0.00 | 0.00 | 0.00 | 62 | 971.7 |
| 20260505004515 | 70 | 36 | 0.0 | 0.0 | 0.00 | 0.00 | 0.00 | 63 | 971.8 |
| 20260505004004 | 70 | 36 | 0.0 | 0.0 | 0.00 | 0.00 | 0.00 | 62 | 971.9 |
| 20260505003513 | 70 | 32 | 0.0 | 0.0 | 0.00 | 0.00 | 0.00 | 62 | 971.8 |
| 20260505003019 | 70 | 36 | 0.0 | 0.0 | 0.00 | 0.00 | 0.00 | 62 | 971.9 |
| 20260505002508 | 70 | 36 | 0.0 | 0.0 | 0.00 | 0.00 | 0.00 | 61 | 971.9 |
| 20260505002006 | 70 | 36 | 0.0 | 0.0 | 0.00 | 0.00 | 0.00 | 62 | 971.9 |
| 20260505001522 | 70 | 36 | 0.0 | 0.0 | 0.00 | 0.00 | 0.00 | 61 | 971.8 |
| 20260505001012 | 70 | 37 | 0.0 | 0.0 | 0.00 | 0.00 | 0.00 | 62 | 971.9 |
| 20260505000507 | 70 | 34 | 0.0 | 0.0 | 0.00 | 0.00 | 0.00 | 62 | 971.7 |
| 20260505000013 | 70 | 36 | 0.0 | 0.0 | 0.00 | 0.00 | 0.00 | 62 | 971.9 |
| 20260504235503 | 70 | 35 | 0.0 | 0.0 | 0.00 | 0.00 | 0.00 | 62 | 971.9 |
| 20260504235004 | 70 | 35 | 0.0 | 0.0 | 0.00 | 0.00 | 0.00 | 61 | 971.9 |
| 20260504234512 | 71 | 36 | 0.0 | 0.0 | 0.00 | 0.00 | 0.00 | 60 | 971.9 |
| 20260504234004 | 71 | 35 | 0.0 | 0.0 | 0.00 | 0.00 | 0.00 | 61 | 971.8 |
| 20260504233508 | 71 | 37 | 0.0 | 0.0 | 0.00 | 0.00 | 0.00 | 60 | 971.6 |
| 20260504233022 | 71 | 34 | 0.0 | 0.0 | 0.00 | 0.00 | 0.00 | 60 | 971.8 |
| 20260504232504 | 71 | 37 | 0.0 | 0.0 | 0.00 | 0.00 | 0.00 | 59 | 971.9 |
| 20260504232012 | 72 | 38 | 0.0 | 0.0 | 0.00 | 0.00 | 0.00 | 58 | 972.0 |
| 20260504231527 | 72 | 32 | 0.0 | 0.0 | 0.00 | 0.00 | 0.00 | 58 | 971.9 |
| 20260504231006 | 72 | 34 | 0.0 | 0.0 | 0.00 | 0.00 | 0.00 | 58 | 971.9 |
| 20260504230506 | 72 | 32 | 0.0 | 0.0 | 0.00 | 0.00 | 0.00 | 57 | 972.0 |
| 20260504230023 | 73 | 36 | 0.0 | 0.0 | 0.00 | 0.00 | 0.00 | 55 | 972.1 |
| 20260504225508 | 73 | 37 | 0.0 | 0.0 | 0.00 | 0.00 | 0.00 | 54 | 972.1 |
| 20260504225007 | 73 | 37 | 0.0 | 0.0 | 0.00 | 0.00 | 0.00 | 53 | 972.0 |
| 20260504224508 | 74 | 35 | 0.0 | 0.0 | 0.00 | 0.00 | 0.00 | 51 | 972.0 |
| 20260504224005 | 74 | 41 | 0.0 | 0.0 | 0.00 | 0.00 | 0.00 | 50 | 972.1 |
| 20260504223503 | 74 | 38 | 0.0 | 0.0 | 0.00 | 0.00 | 0.00 | 51 | 972.0 |
| 20260504223012 | 74 | 42 | 0.0 | 0.0 | 0.00 | 0.00 | 0.00 | 52 | 971.9 |
| 20260504222504 | 74 | 30 | 0.0 | 0.0 | 0.00 | 0.00 | 0.00 | 51 | 971.9 |
| 20260504222008 | 74 | 32 | 0.0 | 0.0 | 0.00 | 0.00 | 0.00 | 51 | 971.9 |
| 20260504221520 | 75 | 39 | 0.0 | 0.0 | 0.00 | 0.00 | 0.00 | 50 | 972.0 |
| 20260504221006 | 75 | 40 | 0.0 | 0.0 | 0.00 | 0.00 | 0.00 | 49 | 971.9 |
| 20260504220508 | 75 | 34 | 0.0 | 0.0 | 0.00 | 0.00 | 0.00 | 51 | 971.8 |
| 20260504220022 | 75 | 35 | 0.0 | 0.0 | 0.00 | 0.00 | 0.00 | 51 | 971.9 |
| 20260504215507 | 75 | 33 | 0.0 | 0.0 | 0.00 | 0.00 | 0.00 | 50 | 971.8 |
| 20260504215007 | 75 | 34 | 0.0 | 0.0 | 0.00 | 0.00 | 0.00 | 49 | 971.8 |
| 20260504214527 | 76 | 36 | 0.0 | 0.0 | 0.00 | 0.00 | 0.00 | 48 | 971.8 |
| 20260504214010 | 76 | 37 | 0.0 | 0.0 | 0.00 | 0.00 | 0.00 | 49 | 971.7 |
| 20260504213505 | 76 | 38 | 0.0 | 0.0 | 0.00 | 0.00 | 0.00 | 48 | 971.9 |
| 20260504213012 | 76 | 32 | 0.0 | 0.0 | 0.00 | 0.00 | 0.00 | 48 | 971.8 |
| 20260504212508 | 76 | 37 | 0.0 | 0.0 | 0.00 | 0.00 | 0.00 | 47 | 971.8 |
| 20260504212009 | 76 | 33 | 0.0 | 0.0 | 0.00 | 0.00 | 0.00 | 48 | 971.9 |
| 20260504211502 | 77 | 33 | 0.0 | 0.0 | 0.00 | 0.00 | 0.00 | 47 | 972.0 |
| 20260504211002 | 77 | 35 | 0.0 | 0.0 | 0.00 | 0.00 | 0.00 | 47 | 971.8 |
| 20260504210502 | 77 | 34 | 0.0 | 0.0 | 0.00 | 0.00 | 0.00 | 47 | 971.7 |
| 20260504210003 | 77 | 33 | 0.0 | 0.0 | 0.00 | 0.00 | 0.00 | 46 | 971.9 |
| 20260504205503 | 77 | 36 | 0.0 | 0.0 | 0.00 | 0.00 | 0.00 | 47 | 971.8 |
| 20260504205007 | 77 | 35 | 0.0 | 0.0 | 0.00 | 0.00 | 0.00 | 47 | 971.6 |
| 20260504204503 | 77 | 36 | 0.0 | 0.0 | 0.00 | 0.00 | 0.00 | 49 | 971.7 |
| 20260504204003 | 77 | 35 | 0.0 | 0.0 | 0.00 | 0.00 | 0.00 | 49 | 971.7 |
| 20260504203503 | 76 | 33 | 0.0 | 0.0 | 0.00 | 0.00 | 0.00 | 49 | 971.6 |
| 20260504203020 | 77 | 34 | 0.0 | 0.0 | 0.00 | 0.00 | 0.00 | 48 | 971.8 |
| 20260504202504 | 77 | 37 | 0.0 | 0.0 | 0.00 | 0.00 | 0.00 | 46 | 971.9 |
| 20260504202006 | 78 | 34 | 0.0 | 0.0 | 0.00 | 0.00 | 0.00 | 47 | 971.8 |
| 20260504201512 | 78 | 34 | 0.0 | 0.0 | 0.00 | 0.00 | 0.00 | 49 | 971.9 |
| 20260504201006 | 78 | 32 | 0.0 | 0.0 | 0.00 | 0.00 | 0.00 | 47 | 972.0 |
| 20260504200509 | 78 | 36 | 0.0 | 0.0 | 0.00 | 0.00 | 0.00 | 49 | 972.1 |
| 20260504200003 | 77 | 32 | 0.0 | 0.0 | 0.00 | 0.00 | 0.00 | 50 | 972.1 |
| 20260504195502 | 76 | 25 | 0.0 | 0.0 | 0.00 | 0.00 | 0.00 | 51 | 972.1 |
| 20260504195002 | 77 | 34 | 0.0 | 0.0 | 0.00 | 0.00 | 0.00 | 49 | 972.4 |
| 20260504194504 | 77 | 31 | 0.0 | 0.0 | 0.00 | 0.00 | 0.00 | 48 | 972.5 |
| 20260504194003 | 77 | 27 | 0.0 | 0.0 | 0.00 | 0.00 | 0.00 | 51 | 972.4 |
| 20260504193502 | 76 | 35 | 0.0 | 0.0 | 0.00 | 0.00 | 0.00 | 51 | 972.6 |
| 20260504193014 | 76 | 31 | 0.0 | 0.0 | 0.00 | 0.00 | 0.00 | 54 | 972.7 |
| 20260504192503 | 75 | 32 | 0.0 | 0.0 | 0.00 | 0.00 | 0.00 | 54 | 972.9 |
| 20260504192004 | 76 | 32 | 0.0 | 0.0 | 0.00 | 0.00 | 0.00 | 53 | 973.0 |
| 20260504191511 | 76 | 34 | 0.0 | 0.0 | 0.00 | 0.00 | 0.00 | 53 | 972.9 |
| 20260504191004 | 75 | 32 | 0.0 | 0.0 | 0.00 | 0.00 | 0.00 | 53 | 973.1 |
| 20260504190505 | 75 | 34 | 0.0 | 0.0 | 0.00 | 0.00 | 0.00 | 53 | 973.2 |
| 20260504190017 | 75 | 33 | 0.0 | 0.0 | 0.00 | 0.00 | 0.00 | 54 | 973.2 |
| 20260504185509 | 75 | 28 | 0.0 | 0.0 | 0.00 | 0.00 | 0.00 | 54 | 973.3 |
| 20260504185006 | 75 | 34 | 0.0 | 0.0 | 0.00 | 0.00 | 0.00 | 55 | 973.5 |
| 20260504184528 | 75 | 37 | 0.0 | 0.0 | 0.00 | 0.00 | 0.00 | 56 | 973.5 |
| 20260504184003 | 75 | 32 | 0.0 | 0.0 | 0.00 | 0.00 | 0.00 | 56 | 973.7 |
| 20260504183503 | 75 | 34 | 0.0 | 0.0 | 0.00 | 0.00 | 0.00 | 55 | 973.7 |
| 20260504183004 | 75 | 27 | 0.0 | 0.0 | 0.00 | 0.00 | 0.00 | 55 | 973.7 |
| 20260504182503 | 74 | 32 | 0.0 | 0.0 | 0.00 | 0.00 | 0.00 | 56 | 973.8 |
| 20260504182003 | 75 | 36 | 0.0 | 0.0 | 0.00 | 0.00 | 0.00 | 55 | 973.8 |
| 20260504181508 | 74 | 34 | 0.0 | 0.0 | 0.00 | 0.00 | 0.00 | 58 | 973.8 |
| 20260504181004 | 74 | 33 | 0.0 | 0.0 | 0.00 | 0.00 | 0.00 | 55 | 973.9 |
| 20260504180504 | 74 | 37 | 0.0 | 0.0 | 0.00 | 0.00 | 0.00 | 55 | 974.0 |
| 20260504180015 | 74 | 32 | 0.0 | 0.0 | 0.00 | 0.00 | 0.00 | 56 | 973.9 |
| 20260504175504 | 74 | 34 | 0.0 | 0.0 | 0.00 | 0.00 | 0.00 | 56 | 973.9 |
| 20260504175005 | 73 | 34 | 0.0 | 0.0 | 0.00 | 0.00 | 0.00 | 56 | 973.8 |
| 20260504174516 | 73 | 32 | 0.0 | 0.0 | 0.00 | 0.00 | 0.00 | 56 | 974.0 |
| 20260504174007 | 73 | 32 | 0.0 | 0.0 | 0.00 | 0.00 | 0.00 | 55 | 974.0 |
| 20260504173508 | 73 | 34 | 0.0 | 0.0 | 0.00 | 0.00 | 0.00 | 57 | 974.2 |
| 20260504173024 | 73 | 34 | 0.0 | 0.0 | 0.00 | 0.00 | 0.00 | 56 | 974.2 |
| 20260504172502 | 73 | 32 | 0.0 | 0.0 | 0.00 | 0.00 | 0.00 | 55 | 974.5 |
| 20260504172003 | 73 | 34 | 0.0 | 0.0 | 0.00 | 0.00 | 0.00 | 55 | 974.6 |
| 20260504171507 | 73 | 32 | 0.0 | 0.0 | 0.00 | 0.00 | 0.00 | 54 | 974.7 |
| 20260504171007 | 73 | 36 | 0.0 | 0.0 | 0.00 | 0.00 | 0.00 | 56 | 974.7 |
| 20260504170504 | 73 | 26 | 0.0 | 0.0 | 0.00 | 0.00 | 0.00 | 55 | 974.8 |
| 20260504151006 | 67 | 29 | 0.0 | 0.0 | 0.00 | 0.00 | 0.00 | 60 | 976.1 |
| 20260504150510 | 67 | 27 | 0.0 | 0.0 | 0.00 | 0.00 | 0.00 | 61 | 976.2 |
| 20260504141012 | 62 | 27 | 0.0 | 0.0 | 0.00 | 0.00 | 0.00 | 68 | 976.7 |
| 20260504140506 | 61 | 27 | 0.0 | 0.0 | 0.00 | 0.00 | 0.00 | 68 | 976.7 |
| 20260504130508 | 56 | 26 | 0.0 | 0.0 | 0.00 | 0.00 | 0.00 | 74 | 977.0 |
| 20260504110506 | 49 | 24 | 0.0 | 0.0 | 0.00 | 0.00 | 0.00 | 79 | 977.2 |
| 20260504100503 | 49 | 23 | 0.0 | 0.0 | 0.00 | 0.00 | 0.00 | 79 | 977.0 |
| 20260504082008 | 50 | 25 | 0.0 | 0.0 | 0.00 | 0.00 | 0.00 | 78 | 977.0 |
| 20260504081521 | 50 | 25 | 0.0 | 0.0 | 0.00 | 0.00 | 0.00 | 78 | 977.1 |
| 20260504081003 | 50 | 25 | 0.0 | 0.0 | 0.00 | 0.00 | 0.00 | 78 | 977.1 |
| 20260504080503 | 50 | 25 | 0.0 | 0.0 | 0.00 | 0.00 | 0.00 | 78 | 977.2 |
| 20260504050509 | 52 | 23 | 0.0 | 0.0 | 0.00 | 0.00 | 0.00 | 75 | 979.2 |
| 20260504050020 | 52 | 25 | 0.0 | 0.0 | 0.00 | 0.00 | 0.00 | 75 | 979.2 |
| 20260504045509 | 52 | 25 | 0.0 | 0.0 | 0.00 | 0.00 | 0.00 | 75 | 979.2 |
| 20260504045007 | 52 | 23 | 0.0 | 0.0 | 0.00 | 0.00 | 0.00 | 75 | 979.3 |
| 20260504044522 | 52 | 24 | 0.0 | 0.0 | 0.00 | 0.00 | 0.00 | 75 | 979.3 |
| 20260504044008 | 52 | 25 | 0.0 | 0.0 | 0.00 | 0.00 | 0.00 | 75 | 979.3 |
| 20260504043508 | 52 | 25 | 0.0 | 0.0 | 0.00 | 0.00 | 0.00 | 75 | 979.3 |
| 20260504043028 | 52 | 23 | 0.0 | 0.0 | 0.00 | 0.00 | 0.00 | 75 | 979.3 |
| 20260504042510 | 52 | 25 | 0.0 | 0.0 | 0.00 | 0.00 | 0.00 | 75 | 979.4 |
| 20260504042004 | 52 | 25 | 0.0 | 0.0 | 0.00 | 0.00 | 0.00 | 75 | 979.4 |
| 20260504041511 | 52 | 23 | 0.0 | 0.0 | 0.00 | 0.00 | 0.00 | 75 | 979.4 |
| 20260504041004 | 52 | 26 | 0.0 | 0.0 | 0.00 | 0.00 | 0.00 | 76 | 979.4 |
| 20260504040506 | 52 | 25 | 0.0 | 0.0 | 0.00 | 0.00 | 0.00 | 76 | 979.4 |
| 20260504040015 | 52 | 23 | 0.0 | 0.0 | 0.00 | 0.00 | 0.00 | 76 | 979.4 |
| 20260504035505 | 51 | 23 | 0.0 | 0.0 | 0.00 | 0.00 | 0.00 | 76 | 979.5 |
| 20260504035007 | 51 | 25 | 0.0 | 0.0 | 0.00 | 0.00 | 0.00 | 77 | 979.5 |
| 20260504034535 | 51 | 24 | 0.0 | 0.0 | 0.00 | 0.00 | 0.00 | 77 | 979.4 |
| 20260504034006 | 51 | 25 | 0.0 | 0.0 | 0.00 | 0.00 | 0.00 | 77 | 979.6 |
| 20260504033507 | 51 | 25 | 0.0 | 0.0 | 0.00 | 0.00 | 0.00 | 78 | 979.6 |
| 20260504033006 | 51 | 25 | 0.0 | 0.0 | 0.00 | 0.00 | 0.00 | 78 | 979.7 |
| 20260504032503 | 51 | 25 | 0.0 | 0.0 | 0.00 | 0.00 | 0.00 | 78 | 979.8 |
| 20260504032003 | 51 | 23 | 0.0 | 0.0 | 0.00 | 0.00 | 0.00 | 78 | 979.9 |
| 20260504031508 | 51 | 25 | 0.0 | 0.0 | 0.00 | 0.00 | 0.00 | 78 | 979.9 |
| 20260504031003 | 51 | 22 | 0.0 | 0.0 | 0.00 | 0.00 | 0.00 | 78 | 979.9 |
| 20260504030506 | 51 | 25 | 0.0 | 0.0 | 0.00 | 0.00 | 0.00 | 79 | 979.9 |
| 20260504030025 | 51 | 25 | 0.0 | 0.0 | 0.00 | 0.00 | 0.00 | 79 | 979.9 |
| 20260504025507 | 51 | 23 | 0.0 | 0.0 | 0.00 | 0.00 | 0.00 | 78 | 979.9 |
| 20260504025007 | 51 | 24 | 0.0 | 0.0 | 0.00 | 0.00 | 0.00 | 79 | 980.0 |
| 20260504024505 | 51 | 25 | 0.0 | 0.0 | 0.00 | 0.00 | 0.00 | 79 | 980.0 |
| 20260504024003 | 51 | 25 | 0.0 | 0.0 | 0.00 | 0.00 | 0.00 | 79 | 980.0 |
| 20260504023503 | 51 | 23 | 0.0 | 0.0 | 0.00 | 0.00 | 0.00 | 79 | 979.8 |
| 20260504023004 | 51 | 25 | 0.0 | 0.0 | 0.00 | 0.00 | 0.00 | 79 | 979.8 |
| 20260504022503 | 51 | 23 | 0.0 | 0.0 | 0.00 | 0.00 | 0.00 | 79 | 979.9 |
| 20260504022003 | 51 | 25 | 0.0 | 0.0 | 0.00 | 0.00 | 0.00 | 79 | 979.9 |
| 20260504021508 | 51 | 24 | 0.0 | 0.0 | 0.00 | 0.00 | 0.00 | 79 | 979.9 |
| 20260504021003 | 51 | 25 | 0.0 | 0.0 | 0.00 | 0.00 | 0.00 | 79 | 979.9 |
| 20260504020505 | 51 | 23 | 0.0 | 0.0 | 0.00 | 0.00 | 0.00 | 79 | 979.9 |
| 20260504020012 | 51 | 25 | 0.0 | 0.0 | 0.00 | 0.00 | 0.00 | 79 | 980.0 |
| 20260504015504 | 51 | 23 | 0.0 | 0.0 | 0.00 | 0.00 | 0.00 | 79 | 980.0 |
| 20260504015004 | 51 | 25 | 0.0 | 0.0 | 0.00 | 0.00 | 0.00 | 79 | 979.9 |
| 20260504014519 | 51 | 23 | 0.0 | 0.0 | 0.00 | 0.00 | 0.00 | 79 | 980.0 |
| 20260504014009 | 51 | 25 | 0.0 | 0.0 | 0.00 | 0.00 | 0.00 | 79 | 980.0 |
| 20260504013507 | 51 | 25 | 0.0 | 0.0 | 0.00 | 0.00 | 0.00 | 78 | 980.0 |
| 20260504013019 | 51 | 25 | 0.0 | 0.0 | 0.00 | 0.00 | 0.00 | 78 | 980.1 |
| 20260504012504 | 51 | 23 | 0.0 | 0.0 | 0.00 | 0.00 | 0.00 | 78 | 980.2 |
| 20260504012003 | 51 | 25 | 0.0 | 0.0 | 0.00 | 0.00 | 0.00 | 78 | 980.3 |
| 20260504011504 | 51 | 23 | 0.0 | 0.0 | 0.00 | 0.00 | 0.00 | 78 | 980.2 |